Theta_e
305 309 312 313 310 309 310 310 310 315 314 309 309 310 311 307 312 312 301 307 306 305 305 306 313 314 315 316 318 319 321 324 330 337 338 340 339 335 331 340 343 340 339 339 339 342 341 341 337
306 309 312 304 308 307 302 308 311 313 310 305 304 306 307 306 302 300 301 303 303 303 303 303 305 311 313 313 314 314 317 319 322 325 332 333 339 339 335 333 340 342 339 339 343 340 343 341 338
306 308 309 308 306 306 306 306 309 305 303 305 303 301 304 301 299 299 300 302 302 302 302 302 302 303 304 306 309 307 308 312 316 318 322 328 334 337 338 337 335 338 339 340 343 342 342 341 338
305 301 296 306 307 305 307 306 305 304 303 301 302 303 299 299 299 300 301 301 301 301 301 300 300 300 301 301 302 304 304 305 309 311 314 321 328 334 336 338 337 336 336 339 342 342 342 341 339
301 295 300 302 303 304 302 304 302 303 302 301 300 303 301 298 300 300 300 300 300 299 298 298 298 298 298 298 299 300 301 303 305 307 306 307 318 331 331 336 337 338 336 336 338 340 341 341 338
297 295 299 300 300 302 301 301 301 301 300 301 300 299 299 298 299 300 299 299 299 298 298 297 296 296 296 296 297 297 298 300 303 303 303 303 304 315 329 333 336 336 338 336 337 340 339 339 338
298 297 299 299 300 302 302 299 301 301 301 301 297 301 298 297 299 299 299 298 298 297 297 296 296 295 295 295 295 296 296 297 298 299 300 301 302 303 312 326 332 335 336 338 336 337 338 337 337
294 297 300 299 301 302 301 301 300 300 301 298 299 300 300 296 298 298 298 297 296 296 295 295 295 295 295 295 295 295 295 296 296 297 298 300 301 301 303 309 321 327 335 335 337 336 336 338 337
295 299 299 301 299 302 300 301 300 299 300 299 298 297 297 298 298 297 296 296 296 295 294 294 294 294 295 295 295 295 295 295 295 296 296 298 300 301 301 303 307 315 327 333 335 336 336 336 337
298 298 300 299 299 300 299 299 300 300 300 299 298 296 296 297 296 296 295 295 295 295 294 293 293 293 293 294 294 295 295 295 295 295 295 296 297 299 300 301 303 306 316 326 331 334 336 335 336
299 299 300 301 300 298 299 299 298 298 298 297 297 297 294 295 295 294 294 294 294 293 293 293 292 292 292 293 293 294 294 294 295 294 294 295 295 296 299 300 301 302 306 313 324 332 332 335 335
301 300 300 301 302 299 299 298 298 296 297 298 295 295 294 293 293 293 293 293 293 292 292 292 292 291 292 292 291 292 293 293 294 294 294 294 294 295 296 298 300 301 303 306 312 323 331 333 335
301 301 300 300 299 298 298 298 298 296 295 294 295 295 294 293 293 294 294 293 292 292 292 292 291 291 290 290 290 291 291 292 293 294 294 293 293 294 295 296 298 300 301 304 306 311 326 332 334
300 300 299 299 300 299 299 298 297 299 295 294 294 294 293 293 293 292 292 292 291 291 290 290 289 289 289 289 289 289 290 290 291 292 293 293 293 294 294 295 296 298 300 302 305 307 315 330 332
300 300 299 299 299 299 298 299 298 298 296 296 293 293 293 292 293 292 292 292 291 291 289 289 289 288 288 288 288 288 288 288 289 291 292 293 293 294 294 295 296 297 300 301 304 306 310 325 332
301 301 300 301 299 299 299 300 301 296 295 296 294 292 291 292 292 292 292 291 290 289 289 288 288 288 288 288 288 288 288 288 288 290 291 293 293 293 294 294 296 297 299 301 303 306 307 322 328
300 299 301 302 300 299 299 301 300 295 295 296 294 292 291 290 289 290 290 290 289 288 288 287 287 287 286 287 287 287 287 288 288 288 289 291 293 293 293 294 295 297 299 301 304 306 309 317 327
300 301 301 302 300 299 299 298 299 299 295 295 293 292 291 290 289 289 288 288 287 287 286 286 286 286 285 285 285 286 286 287 287 287 289 290 291 292 293 296 298 299 300 301 304 306 308 315 323
301 302 301 301 299 299 299 298 299 299 296 294 293 292 290 289 288 288 287 287 286 286 285 285 284 284 284 284 283 284 285 285 285 287 287 288 290 293 295 297 298 300 301 303 304 306 308 317 319
300 301 301 300 298 299 297 297 299 298 296 294 294 292 291 289 285 285 286 286 285 285 285 284 284 283 283 282 282 283 284 284 284 285 287 289 291 293 295 297 298 299 303 304 305 306 307 318 317
301 301 301 300 299 296 295 297 296 297 295 294 292 290 290 288 285 284 285 285 285 284 283 283 283 282 281 281 282 283 283 283 284 285 285 288 288 290 293 296 297 298 301 305 306 306 306 316 317
301 300 300 300 296 297 297 298 299 297 295 295 294 290 288 286 285 285 284 284 283 283 282 282 281 281 281 281 281 282 282 282 283 283 285 286 287 290 294 295 296 298 301 303 309 310 311 313 316
298 298 298 298 295 291 299 298 298 295 300 298 295 291 287 285 282 283 281 283 282 282 282 281 280 280 280 280 281 281 281 282 282 283 284 285 286 291 293 294 295 296 300 301 302 307 310 312 315
298 299 299 296 296 295 298 299 300 297 294 296 294 291 289 285 285 284 283 282 282 282 280 280 279 280 280 280 280 280 280 281 282 283 283 284 286 288 290 292 293 294 298 298 299 302 307 309 312
300 304 309 300 293 301 297 298 301 294 290 287 287 288 283 284 284 282 281 281 281 280 279 279 279 279 279 279 279 279 280 280 281 282 282 283 285 286 288 290 292 293 296 296 296 297 303 307 308
302 302 306 300 297 301 297 299 300 289 282 278 280 279 282 284 283 281 280 280 279 279 278 278 278 278 278 278 279 279 279 279 280 280 281 281 283 284 286 287 289 292 295 295 294 295 299 304 306
302 303 296 291 289 299 298 295 293 294 287 282 284 287 286 284 282 279 279 279 278 278 278 277 277 278 278 278 278 278 279 279 279 279 280 281 282 283 285 287 289 290 292 296 293 293 296 301 302
299 297 302 298 302 299 296 292 295 289 289 287 285 287 284 282 281 279 278 277 277 277 277 277 278 278 278 278 278 278 278 279 279 279 280 281 282 283 285 286 287 289 290 293 293 293 294 298 299
298 300 297 296 292 293 294 297 286 286 283 286 287 287 281 280 278 277 276 277 276 277 277 277 278 278 278 278 278 278 278 278 279 279 280 281 281 282 283 284 285 286 288 289 291 294 294 298 299
296 297 297 297 291 282 287 297 281 280 276 275 284 286 281 278 276 275 275 274 275 276 277 277 277 277 278 278 278 278 278 278 279 279 280 280 281 282 282 283 283 287 287 286 288 291 292 295 296
Wind_Speed
5 3 3 5 3 4 4 6 1 2 3 1 2 2 4 4 2 3 5 7 3 7 9 13 16 18 20 21 21 22 22 20 16 8 14 11 6 6 5 10 13 18 19 19 19 19 20 21 20
4 3 4 2 4 1 5 3 5 4 4 7 5 3 4 2 2 5 6 7 5 5 9 13 15 17 19 19 19 20 21 21 20 20 10 15 11 6 7 9 14 16 19 19 19 20 21 22 22
3 3 3 4 3 5 5 3 2 3 2 2 4 5 3 6 2 4 6 8 5 5 7 11 13 16 18 19 19 19 20 20 20 20 19 14 10 9 6 9 12 17 17 20 19 21 22 23 24
2 5 4 3 6 6 5 1 3 4 2 5 3 5 2 0 2 6 13 8 4 3 5 8 11 13 15 16 17 19 18 18 19 19 19 18 10 5 5 6 12 15 18 21 22 22 23 24 25
5 3 3 1 5 5 3 2 4 4 2 2 2 4 5 2 11 13 12 7 3 4 6 7 10 12 14 16 16 18 18 18 17 18 17 17 15 11 8 8 10 14 17 20 22 23 24 25 26
4 3 2 4 5 4 4 2 2 2 2 2 4 6 4 9 11 11 8 5 2 2 6 9 11 13 15 15 14 16 16 17 17 16 16 16 15 13 11 10 13 15 15 19 22 24 25 27 27
6 4 4 3 4 4 4 5 3 3 2 2 7 4 2 5 12 11 8 5 0 3 6 10 13 15 16 16 15 15 15 16 17 17 17 17 15 15 15 13 12 13 17 16 22 26 28 28 28
4 4 4 4 4 5 3 2 1 3 3 2 1 5 5 7 16 13 10 5 1 3 6 10 13 16 17 17 18 20 17 15 16 17 18 18 17 16 15 15 14 15 16 21 20 25 26 27 29
3 3 3 5 7 3 1 3 1 0 3 1 1 2 2 17 18 15 10 6 4 4 8 12 15 16 16 17 18 20 21 19 17 17 17 18 19 19 18 16 16 16 18 19 23 25 27 28 27
4 3 7 3 3 3 3 3 4 0 2 3 3 1 8 16 16 14 11 9 5 5 7 11 14 15 16 17 19 20 21 23 22 19 19 19 19 20 20 19 18 16 16 19 21 26 28 29 30
3 5 3 2 2 4 3 2 3 4 6 9 8 6 9 10 12 12 12 9 5 2 5 9 12 15 17 17 18 20 21 22 24 24 20 20 20 21 21 21 20 18 16 16 18 19 27 30 33
2 4 3 2 2 3 3 1 4 8 6 2 9 5 7 9 10 14 13 9 5 3 5 8 12 15 16 18 19 19 19 21 22 24 24 22 22 22 22 23 22 21 17 17 17 17 19 24 30
4 2 2 3 2 4 1 6 6 11 10 7 4 5 9 9 10 12 8 7 6 5 7 8 11 13 15 18 19 20 20 19 20 22 23 23 22 23 24 25 25 23 21 18 19 19 18 22 27
1 3 5 6 5 4 4 3 4 4 0 7 7 9 9 9 12 9 11 11 10 8 7 8 10 12 16 18 19 20 20 21 20 22 21 22 21 23 23 24 26 26 24 21 20 21 22 21 26
2 6 6 6 3 5 4 7 11 6 3 6 9 8 8 8 12 17 18 16 12 9 8 9 12 14 19 21 23 23 22 21 22 23 22 20 20 22 24 24 26 27 26 25 23 22 23 22 28
2 1 4 1 5 1 4 8 4 4 6 9 9 8 8 8 13 17 16 14 11 8 8 10 13 17 21 23 25 26 26 23 24 21 21 21 20 22 24 25 25 25 27 26 24 22 23 22 23
2 4 5 6 4 2 5 6 4 4 5 9 8 8 8 6 5 13 15 13 10 8 8 11 15 18 21 24 26 26 25 24 21 23 23 24 21 24 25 25 25 25 27 27 25 23 20 22 21
4 4 4 6 1 2 6 14 16 11 8 11 10 9 8 8 9 15 14 11 8 7 8 12 16 19 22 24 26 27 24 20 23 24 19 21 24 25 23 23 24 23 25 26 25 22 21 16 15
1 3 5 4 1 3 8 10 19 15 7 9 9 8 8 8 5 13 11 7 5 7 9 13 17 19 21 24 24 20 18 25 28 22 26 25 21 18 19 21 20 19 23 25 24 23 20 15 11
4 4 6 5 2 1 8 16 18 13 6 5 4 6 7 3 5 7 6 3 6 10 12 14 16 18 20 21 23 20 25 23 28 27 24 20 18 18 20 21 20 21 22 25 25 22 20 14 20
3 4 4 4 4 0 7 8 6 1 3 3 4 3 4 7 7 4 2 5 8 9 11 13 16 18 20 20 18 22 25 23 20 19 21 18 20 20 20 20 21 22 20 24 24 21 20 12 22
2 1 2 1 3 3 2 6 7 3 7 4 6 4 4 2 3 1 3 6 6 7 10 13 16 19 19 16 18 17 16 19 21 23 20 21 21 18 18 19 20 19 18 16 15 12 16 13 13
5 3 1 2 3 4 1 1 8 4 3 2 4 7 5 4 3 4 5 6 5 8 12 15 17 19 16 17 15 17 17 18 20 22 22 19 20 18 17 17 18 17 15 14 12 13 12 10 15
4 3 2 3 2 2 1 2 6 3 5 3 2 5 4 5 5 4 4 3 8 11 14 16 18 16 18 17 17 18 17 18 20 20 21 20 19 22 21 17 16 15 14 13 12 12 11 9 10
3 3 3 3 2 4 2 1 9 5 4 5 5 8 6 5 5 5 5 7 11 13 15 17 15 20 19 18 19 18 19 19 19 19 18 20 19 19 18 17 16 14 14 13 13 13 11 9 8
1 2 2 6 2 3 2 6 5 5 4 6 6 8 7 7 5 6 5 7 10 11 16 17 18 20 20 20 20 19 18 19 18 18 19 22 20 21 23 20 17 14 14 14 13 13 14 10 7
4 3 2 4 1 1 2 7 8 2 5 5 8 6 8 7 6 3 5 7 10 14 16 16 18 18 18 19 18 18 16 16 17 19 20 20 20 21 21 18 17 15 14 14 14 12 12 12 9
2 2 2 0 1 3 4 5 5 4 4 5 6 7 7 6 6 4 4 8 12 14 15 15 15 16 17 16 15 15 16 14 14 14 15 15 16 15 15 15 14 15 13 9 11 11 11 10 7
3 2 1 2 2 4 2 6 7 6 6 6 8 8 7 6 5 4 5 10 12 13 13 14 14 15 16 15 15 14 14 12 11 11 11 11 11 11 11 11 10 7 7 5 8 10 8 8 3
1 2 3 3 4 0 2 6 3 6 4 3 10 10 5 3 3 4 6 11 13 13 13 14 15 15 14 14 13 12 10 10 9 9 9 8 7 7 7 7 6 5 5 4 7 10 7 8 9
Wind_Direction
3 73 105 46 65 62 256 249 156 174 160 206 90 140 147 46 110 192 104 130 61 45 31 26 24 24 24 24 26 24 24 21 12 7 28 5 297 285 239 211 208 205 205 201 199 201 196 195 191
19 104 58 77 102 104 263 251 213 182 145 130 88 99 47 90 57 136 132 107 103 53 22 18 14 18 19 18 17 18 20 17 14 13 351 17 9 282 270 232 217 215 214 208 205 205 205 201 198
103 76 87 107 133 191 224 234 171 144 80 158 94 50 109 148 136 129 136 143 111 57 21 9 2 5 6 7 7 4 4 7 9 7 6 1 9 14 285 260 242 230 222 216 212 211 210 209 205
141 30 36 108 225 252 210 252 189 144 105 50 123 77 54 323 139 143 141 141 128 69 26 6 355 353 352 350 349 349 349 347 355 358 359 355 337 321 304 281 259 250 239 229 222 219 212 215 210
55 60 75 256 253 259 242 237 171 165 98 48 357 185 156 121 130 137 144 142 115 57 22 9 1 356 351 348 342 333 331 335 338 344 343 345 337 317 314 282 277 266 251 241 235 225 217 217 211
49 97 90 234 244 257 276 209 197 164 118 136 76 148 198 157 158 152 152 150 111 27 0 357 357 355 354 350 343 336 327 325 329 330 329 328 333 328 308 286 276 269 267 251 241 233 229 223 215
123 100 214 214 247 292 226 158 186 180 118 217 142 148 130 191 178 169 173 176 187 336 339 349 351 352 353 352 348 342 331 324 318 315 317 314 322 324 321 297 279 274 264 263 251 245 239 231 225
105 96 160 240 209 253 176 131 84 147 223 82 126 218 240 198 175 172 176 184 231 326 338 343 343 343 343 344 341 339 339 326 319 315 309 307 308 311 311 309 299 281 273 261 260 251 247 239 229
135 60 229 239 167 236 211 170 250 45 150 206 242 202 305 157 168 174 187 208 239 315 340 342 341 341 339 337 333 331 331 331 323 315 311 303 305 306 307 306 307 306 281 271 263 257 249 245 234
98 143 224 219 212 196 191 184 195 250 211 247 250 192 154 161 173 184 200 219 245 294 328 341 342 341 337 333 329 328 327 327 327 323 316 311 306 301 302 301 300 305 297 277 278 262 253 243 243
162 206 208 250 202 158 182 238 202 185 240 221 210 193 184 189 194 202 211 219 229 270 328 334 336 337 336 334 330 326 324 323 321 323 320 313 307 303 297 296 298 301 299 295 288 279 270 257 237
235 248 244 290 181 155 204 186 259 204 223 177 219 190 169 192 202 209 211 202 204 247 301 320 328 332 334 333 331 327 322 319 318 316 319 318 311 305 303 298 296 298 298 297 293 287 288 267 251
207 258 246 283 196 241 313 242 246 257 238 242 205 177 197 208 213 221 220 211 218 247 281 305 321 327 331 332 329 326 321 317 313 310 309 312 310 307 304 300 297 293 293 293 295 294 283 273 256
339 286 269 267 225 232 211 257 126 256 342 191 185 212 213 215 215 207 209 211 217 236 267 299 318 324 329 330 327 323 318 315 312 308 304 305 305 306 307 301 296 292 290 290 292 291 282 277 261
343 320 313 231 211 227 164 275 233 219 147 200 221 223 227 224 218 217 215 213 222 243 273 303 321 323 327 328 325 321 320 313 311 309 305 300 301 304 304 300 294 292 290 289 289 291 282 273 258
324 50 326 345 140 192 139 266 272 149 169 243 242 236 226 226 220 223 219 221 227 249 280 306 318 323 326 326 323 320 318 315 312 312 307 303 299 301 300 296 292 289 289 289 289 290 292 287 266
341 256 216 310 183 132 189 275 243 135 183 253 253 247 239 231 207 198 201 212 226 251 280 304 320 326 328 324 322 319 316 314 313 312 307 299 298 296 298 295 293 291 288 285 286 283 283 282 273
239 252 257 260 346 216 246 256 274 263 210 244 252 252 252 232 217 195 194 203 226 258 297 313 320 328 330 327 323 320 321 319 313 316 312 306 298 298 300 300 297 292 287 282 282 279 283 281 246
120 234 265 260 26 280 252 275 274 278 237 258 264 264 255 244 199 187 191 206 244 289 305 322 329 330 330 330 332 328 320 319 318 313 311 312 303 302 305 295 290 287 282 278 277 275 281 258 200
233 263 267 272 122 260 304 292 280 286 262 227 249 286 265 196 183 177 188 255 298 305 315 323 327 326 327 325 322 312 309 310 309 311 315 315 305 291 286 288 290 290 278 277 271 264 269 258 207
222 209 239 252 324 47 325 290 317 301 275 252 236 262 263 217 196 180 242 302 305 310 319 321 321 320 321 323 318 309 311 309 311 313 312 305 303 293 295 289 287 287 284 272 270 262 254 255 223
280 252 140 249 45 265 25 283 300 343 301 265 266 263 263 179 121 145 292 299 305 309 315 316 316 318 321 319 316 311 305 301 303 306 307 305 303 301 294 295 294 284 278 280 262 250 242 246 253
234 21 67 98 95 41 7 358 270 357 311 334 314 251 235 215 213 270 299 301 308 313 318 318 317 320 321 318 313 307 298 293 296 301 302 303 305 308 300 298 297 291 280 280 282 252 240 243 246
140 45 58 39 104 347 173 154 278 234 207 290 307 312 274 231 253 309 312 290 305 317 320 322 325 320 320 319 313 309 299 295 294 296 298 299 300 299 294 297 299 299 286 286 285 269 246 238 250
71 53 299 318 17 223 126 239 249 263 236 215 265 302 289 287 302 305 297 307 322 328 325 324 317 317 323 321 317 312 304 299 292 293 292 296 297 295 298 301 302 304 291 287 287 278 250 241 241
147 168 209 246 236 300 139 237 254 218 245 252 261 263 280 283 284 278 293 308 317 320 319 318 323 321 325 323 319 314 308 303 295 289 287 288 288 292 295 298 294 297 295 289 286 278 249 231 243
136 207 108 111 155 357 269 280 301 263 310 313 280 288 293 296 287 298 301 311 316 316 318 323 323 322 324 321 320 317 313 307 300 297 293 290 290 292 294 295 294 283 284 281 284 264 247 219 235
274 114 173 313 288 284 286 282 242 312 279 296 312 282 295 300 319 317 309 318 320 319 320 320 320 320 322 323 324 316 316 312 306 301 298 296 297 298 297 292 287 280 282 271 262 251 246 211 212
162 187 189 87 115 177 297 272 213 220 222 242 294 298 298 309 299 295 303 317 313 318 322 324 325 326 328 332 331 325 326 321 315 310 310 311 311 304 293 286 282 289 288 273 241 230 223 195 203
11 153 179 140 253 140 144 274 228 236 253 240 284 296 296 265 299 287 307 309 318 324 333 334 333 335 336 338 333 335 335 333 333 336 333 328 317 304 297 307 316 332 317 269 226 218 211 169 155